         **** Don't distribute anyone except personal use only ****

                (C) Copyright 2004 OAA/ComputingSection

write mail from CFAD0::NAKANO on 2004-10-04 01:08:29(JST).

 



P/2004 R3の軌道と予報位置です



  同じく,那賀川の堀寿夫氏と前野拓氏から9月19日の観測が報告されました.

彼らのCCD全光度は18.4等とのことです.

 

    P/2004 R3 (LINEAR-NEAT)                                               

T 2004 May  24.54721 TT                                 Nakano

q   2.1508712            (2000.0)            P               Q

n   0.13188325     Peri.    5.54589     +0.81279037     +0.57533179

a   3.8224601      Node   318.88437     -0.53968948     +0.68453341

e   0.4373071      Incl.    7.99504     -0.21933327     +0.44766879

P   7.47 (+/- 6.08 day)

From 71 observations 2004 Sept. 10-19.

 

Date/        TT  R.A.(2000) Decl.     Delta   r     Daily motion  Mag.  Moon Age

              h    h  m       。  ,                      ,  / PA 。  m1      。

2004 Sept.15 14  00 33.85  +14 22.3   1.360  2.321    10.4 / 271  18.3  165  .01

          16 14  00 33.13  +14 22.4   1.359  2.323    10.6 / 270  18.3  168  .04

          17 14  00 32.40  +14 22.3   1.359  2.326    10.7 / 269  18.3  159  .10

          18 14  00 31.66  +14 22.0   1.358  2.329    10.9 / 268  18.3  146  .18

          19 14  00 30.91  +14 21.5   1.358  2.332    11.0 / 267  18.3  133  .27

          20 14  00 30.16  +14 20.9   1.359  2.335    11.1 / 266  18.3  119  .38

          21 14  00 29.39  +14 20.0   1.359  2.338    11.2 / 265  18.4  105  .49

          22 14  00 28.62  +14 19.0   1.360  2.340    11.3 / 264  18.4   91  .61

          23 14  00 27.85  +14 17.8   1.361  2.343    11.4 / 263  18.4   77  .71

          24 14  00 27.07  +14 16.4   1.362  2.346    11.4 / 262  18.4   63  .81

          25 14  00 26.29  +14 14.9   1.363  2.349    11.5 / 262  18.4   49  .89

          26 14  00 25.51  +14 13.2   1.365  2.352    11.5 / 261  18.4   36  .95

          27 14  00 24.73  +14 11.4   1.367  2.355    11.5 / 260  18.4   23  .99

          28 14  00 23.95  +14 09.4   1.369  2.358    11.5 / 259  18.4   14 1.00

          29 14  00 23.17  +14 07.2   1.371  2.361    11.5 / 259  18.4   15  .99

          30 14  00 22.40  +14 04.9   1.374  2.364    11.5 / 258  18.4   24  .95

     Oct.  1 14  00 21.63  +14 02.5   1.377  2.367    11.4 / 257  18.4   36  .90

           2 14  00 20.86  +14 00.0   1.380  2.370    11.3 / 257  18.4   47  .84

           3 14  00 20.10  +13 57.4   1.383  2.373    11.3 / 256  18.5   59  .76

           4 14  00 19.35  +13 54.6   1.387  2.377    11.2 / 255  18.5   71  .67

           5 14  00 18.61  +13 51.7   1.391  2.380    11.1 / 255  18.5   83  .58

           6 14  00 17.88  +13 48.8   1.395  2.383    10.9 / 254  18.5   95  .49

           7 14  00 17.16  +13 45.7   1.400  2.386    10.8 / 253  18.5  106  .39

           8 14  00 16.45  +13 42.6   1.404  2.389    10.6 / 252  18.5  118  .30

           9 14  00 15.76  +13 39.4   1.409  2.392    10.5 / 252  18.5  130  .21

          10 14  00 15.07  +13 36.1   1.414  2.395    10.3 / 251  18.5  142  .14

          11 14  00 14.41  +13 32.8   1.420  2.399    10.1 / 250  18.6  154  .07

          12 14  00 13.76  +13 29.4   1.425  2.402     9.9 / 250  18.6  164  .03

          13 14  00 13.13  +13 26.0   1.431  2.405     9.6 / 249  18.6  166  .00

          14 14  00 12.51  +13 22.5   1.437  2.408     9.4 / 248  18.6  158  .00

          15 14  00 11.91  +13 19.1   1.444  2.412     9.1 / 247  18.6  145  .03

          16 14  00 11.34  +13 15.6   1.451  2.415     8.9 / 247  18.6  132  .08

          17 14  00 10.78  +13 12.1   1.457  2.418     8.6 / 246  18.7  118  .15

          18 14  00 10.24  +13 08.5   1.465  2.421     8.3 / 245  18.7  104  .24

          19 14  00 09.73  +13 05.0   1.472  2.425     8.0 / 244  18.7   90  .35

          20 14  00 09.23  +13 01.5   1.480  2.428     7.7 / 243  18.7   76  .46

          21 14  00 08.76  +12 58.1   1.487  2.431     7.4 / 242  18.7   62  .58

          22 14  00 08.32  +12 54.6   1.496  2.435     7.1 / 241  18.7   48  .68

          23 14  00 07.89  +12 51.2   1.504  2.438     6.8 / 240  18.8   35  .78

          24 14  00 07.49  +12 47.8   1.512  2.442     6.4 / 239  18.8   23  .87

          25 14  00 07.12  +12 44.5   1.521  2.445     6.1 / 237  18.8   14  .93

          26 14  00 06.76  +12 41.2   1.530  2.448     5.8 / 236  18.8   15  .97

          27 14  00 06.44  +12 38.0   1.539  2.452     5.4 / 234  18.8   24 1.00

          28 14  00 06.14  +12 34.8   1.549  2.455     5.1 / 232  18.9   35 1.00

          29 14  00 05.86  +12 31.7   1.558  2.459     4.8 / 230  18.9   47  .98

          30 14  00 05.61  +12 28.6   1.568  2.462     4.4 / 228  18.9   59  .94

          31 14  00 05.38  +12 25.7   1.578  2.466     4.1 / 225  18.9   71  .89

     Nov.  1 14  00 05.18  +12 22.8   1.588  2.469     3.8 / 222  18.9   83  .82

NAKANO

         **** Don't distribute anyone except personal use only ****

                (C) Copyright 2004 OAA/ComputingSection

write mail from CFAD0::NAKANO on 2004-09-21 02:31:50(JST).

 



戻ります。